Date,Time,Wetness (Wet Dry or Ice),Wind Speed (m/s),Temperature (C),Humidity (%),Pressure (mb),Radiation (W/m^2)
2020-05-29,05:05:00,DRY,3.10,14.35,3.0,775.00,1.2
2020-05-29,05:10:00,DRY,2.93,14.40,4.0,775.00,0.7
2020-05-29,05:15:00,DRY,2.85,14.40,4.0,775.00,0.8
2020-05-29,05:20:00,DRY,2.87,14.23,4.7,775.00,1.5
2020-05-29,05:25:00,DRY,3.45,14.25,5.0,775.00,0.6
2020-05-29,05:30:00,DRY,3.47,14.37,5.0,775.00,1.1
2020-05-29,05:35:00,DRY,2.40,14.45,5.5,775.00,1.5
2020-05-29,05:40:00,DRY,2.47,14.53,5.0,775.00,1.1
2020-05-29,05:45:00,DRY,2.15,14.45,6.0,775.00,1.4
2020-05-29,05:50:00,DRY,2.20,14.40,6.7,775.00,0.6
2020-05-29,05:55:00,DRY,2.65,14.35,7.5,775.00,1.1
2020-05-29,06:00:00,DRY,3.30,14.20,8.0,775.00,2.2
2020-05-29,06:05:00,DRY,3.05,14.20,8.0,775.00,2.3
2020-05-29,06:10:00,DRY,3.60,14.20,7.3,775.00,4.0
2020-05-29,06:15:00,DRY,2.80,14.10,7.0,775.00,5.1
2020-05-29,06:20:00,DRY,2.10,14.13,7.0,775.00,7.1
2020-05-29,06:25:00,DRY,2.65,14.10,6.5,775.00,9.5
2020-05-29,06:30:00,DRY,2.97,14.00,6.0,775.00,12.4
2020-05-29,06:35:00,DRY,3.30,14.05,6.0,775.00,29.0
2020-05-29,06:40:00,DRY,2.70,14.10,6.0,775.00,78.6
2020-05-29,06:45:00,DRY,4.30,14.10,6.0,775.00,108.8
2020-05-29,06:50:00,DRY,3.27,14.13,6.3,775.00,130.8
2020-05-29,06:55:00,DRY,4.00,14.20,6.0,775.00,160.8
2020-05-29,07:00:00,DRY,3.57,14.13,6.3,775.00,176.1
2020-05-29,07:05:00,DRY,2.90,14.10,6.0,775.00,198.3
2020-05-29,07:10:00,DRY,2.77,14.33,7.3,775.00,221.7
2020-05-29,07:15:00,DRY,3.15,14.40,7.0,775.00,242.1
2020-05-29,07:20:00,DRY,3.03,14.30,6.7,775.00,265.6
2020-05-29,07:25:00,DRY,3.25,14.40,7.0,775.00,287.4
2020-05-29,07:30:00,DRY,2.60,14.60,7.7,775.00,310.2
2020-05-29,07:35:00,DRY,1.45,14.70,8.0,775.00,333.5
2020-05-29,07:40:00,DRY,1.90,14.83,9.0,775.00,356.0
2020-05-29,07:45:00,DRY,1.15,15.25,10.0,775.00,377.9
2020-05-29,07:50:00,DRY,1.17,15.40,9.3,775.00,401.6
2020-05-29,07:55:00,DRY,2.35,15.35,9.0,775.00,424.9
2020-05-29,08:00:00,DRY,2.30,15.30,10.0,775.00,448.8
2020-05-29,08:05:00,DRY,1.90,15.25,10.0,775.00,472.7
2020-05-29,08:10:00,DRY,1.40,15.47,10.3,775.00,495.2
2020-05-29,08:15:00,DRY,1.30,15.90,10.0,775.00,516.8
2020-05-29,08:20:00,DRY,1.57,15.77,10.0,775.00,538.6
2020-05-29,08:25:00,DRY,0.80,16.10,10.5,775.00,560.0
2020-05-29,08:30:00,DRY,2.23,15.90,10.0,775.00,579.5
2020-05-29,08:35:00,DRY,2.35,16.05,10.5,775.00,600.3
2020-05-29,08:40:00,DRY,2.03,15.87,10.0,775.00,621.6
2020-05-29,08:45:00,DRY,0.75,16.10,10.0,775.00,641.2
2020-05-29,08:50:00,DRY,2.13,16.07,9.7,775.00,660.9
2020-05-29,08:55:00,DRY,1.90,16.45,10.0,775.00,682.1
2020-05-29,09:00:00,DRY,1.53,16.57,10.3,775.00,700.7
2020-05-29,09:05:00,DRY,1.70,16.75,10.0,775.00,720.7
2020-05-29,09:10:00,DRY,1.73,16.70,10.7,775.00,740.8
2020-05-29,09:15:00,DRY,2.50,17.10,10.0,775.00,759.8
2020-05-29,09:20:00,DRY,1.00,17.27,11.7,775.00,779.7
2020-05-29,09:25:00,DRY,1.80,17.25,9.5,775.00,798.4
2020-05-29,09:30:00,DRY,1.23,17.37,10.3,775.00,814.8
2020-05-29,09:35:00,DRY,2.75,17.75,12.0,775.00,831.8
2020-05-29,09:40:00,DRY,2.80,17.57,10.3,775.00,849.7
2020-05-29,09:45:00,DRY,2.15,17.60,11.0,775.00,867.2
2020-05-29,09:50:00,DRY,2.33,17.83,10.3,774.67,884.8
2020-05-29,09:55:00,DRY,2.45,17.75,11.0,775.00,898.8
2020-05-29,10:00:00,DRY,2.50,18.25,13.0,774.50,919.0
2020-05-29,10:05:00,DRY,1.70,18.40,14.0,775.00,932.3
2020-05-29,10:10:00,DRY,1.67,18.27,13.7,774.67,946.5
2020-05-29,10:15:00,DRY,1.70,19.00,14.0,774.00,958.3
2020-05-29,10:20:00,DRY,1.33,18.73,14.7,774.33,973.2
2020-05-29,10:25:00,DRY,1.90,18.70,16.5,774.00,987.8
2020-05-29,10:30:00,DRY,2.67,19.13,20.7,774.00,999.9
2020-05-29,10:35:00,DRY,1.95,18.80,19.5,774.00,1014.5
2020-05-29,10:40:00,DRY,2.47,18.70,22.7,774.00,1027.2
2020-05-29,10:45:00,DRY,3.40,18.55,23.5,774.00,1037.9
2020-05-29,10:50:00,DRY,2.47,18.43,18.7,774.00,1050.7
2020-05-29,10:55:00,DRY,3.35,18.45,21.0,774.00,1061.4
2020-05-29,11:00:00,DRY,2.40,19.00,22.7,774.00,1072.2
2020-05-29,11:05:00,DRY,1.70,19.15,20.0,774.50,1082.8
2020-05-29,11:10:00,DRY,2.77,18.73,24.0,774.33,1094.5
2020-05-29,11:15:00,DRY,2.00,18.90,17.5,774.50,1107.0
2020-05-29,11:20:00,DRY,2.73,19.17,25.0,775.00,1113.3
2020-05-29,11:25:00,DRY,2.15,19.15,19.0,774.00,1122.3
2020-05-29,11:30:00,DRY,1.40,18.43,25.3,774.00,1129.1
2020-05-29,11:35:00,DRY,1.65,19.05,16.5,774.00,1142.1
2020-05-29,11:40:00,DRY,2.50,19.43,25.7,774.00,1146.9
2020-05-29,11:45:00,DRY,2.50,19.05,29.5,774.00,1153.2
2020-05-29,11:50:00,DRY,2.73,19.07,27.3,774.00,1157.0
2020-05-29,11:55:00,DRY,1.55,18.95,29.0,774.00,1159.6
2020-05-29,12:00:00,DRY,2.57,19.23,25.3,774.00,1171.2
2020-05-29,12:05:00,DRY,1.25,19.15,23.5,774.00,1179.3
2020-05-29,12:10:00,DRY,2.27,19.57,26.0,774.00,1183.6
2020-05-29,12:15:00,DRY,1.50,19.65,25.5,774.00,1186.2
2020-05-29,12:20:00,DRY,2.77,19.07,32.0,774.00,1189.2
2020-05-29,12:25:00,DRY,1.30,18.60,29.0,774.00,1187.2
2020-05-29,12:30:00,DRY,1.57,18.73,24.7,774.00,1195.8
2020-05-29,12:35:00,DRY,2.50,18.85,32.0,774.00,1196.2
2020-05-29,12:40:00,DRY,2.10,19.23,26.7,774.00,1198.5
2020-05-29,12:45:00,DRY,1.15,18.70,32.5,774.00,1201.2
2020-05-29,12:50:00,DRY,1.77,19.23,28.0,774.00,1204.3
2020-05-29,12:55:00,DRY,2.55,19.70,23.5,774.00,1203.2
2020-05-29,13:00:00,DRY,1.30,19.27,33.0,774.00,1204.4
2020-05-29,13:05:00,DRY,1.80,18.85,34.5,774.00,1204.3
2020-05-29,13:10:00,DRY,1.83,19.33,32.0,774.00,1202.2
2020-05-29,13:15:00,DRY,2.70,18.90,32.0,774.00,1201.9
2020-05-29,13:20:00,DRY,0.93,18.87,30.7,774.00,1199.6
2020-05-29,13:25:00,DRY,2.35,19.85,30.5,774.00,1202.7
2020-05-29,13:30:00,DRY,2.80,19.50,20.0,774.00,1207.2
2020-05-29,13:35:00,DRY,1.20,19.70,16.0,774.00,1202.7
2020-05-29,13:40:00,DRY,2.53,20.13,24.7,774.00,1195.2
2020-05-29,13:45:00,DRY,0.65,20.50,27.5,774.00,1194.0
2020-05-29,13:50:00,DRY,1.60,19.37,32.7,774.00,1193.5
2020-05-29,13:55:00,DRY,1.95,18.85,35.0,774.00,1190.5
2020-05-29,14:00:00,DRY,1.67,18.80,36.0,774.00,1185.7
2020-05-29,14:05:00,DRY,2.40,18.95,29.5,774.00,1181.2
2020-05-29,14:10:00,DRY,1.90,17.87,30.0,774.00,1175.8
2020-05-29,14:15:00,DRY,2.25,18.05,23.0,774.00,1173.1
2020-05-29,14:20:00,DRY,2.07,18.80,33.3,774.00,1166.6
2020-05-29,14:25:00,DRY,3.35,19.35,21.5,774.00,1161.4
2020-05-29,14:30:00,DRY,2.10,19.17,29.3,774.00,1154.3
2020-05-29,14:35:00,DRY,1.60,19.85,33.5,774.00,1145.8
2020-05-29,14:40:00,DRY,1.90,19.53,34.0,774.00,1136.7
2020-05-29,14:45:00,DRY,1.70,19.10,39.0,774.00,1129.3
2020-05-29,14:50:00,DRY,2.47,18.90,26.3,773.67,1120.2
2020-05-29,14:55:00,DRY,3.15,18.45,36.0,774.00,1107.3
2020-05-29,15:00:00,DRY,2.33,18.47,39.7,774.00,1100.4
2020-05-29,15:05:00,DRY,2.35,17.95,37.5,773.50,1085.6
2020-05-29,15:10:00,DRY,1.30,18.50,39.3,773.33,1073.2
2020-05-29,15:15:00,DRY,1.65,19.20,27.0,773.50,1068.0
2020-05-29,15:20:00,DRY,1.73,18.70,35.3,773.00,1057.5
2020-05-29,15:25:00,DRY,1.65,18.85,37.0,773.00,1043.0
2020-05-29,15:30:00,DRY,1.40,17.97,36.7,773.00,1030.6
2020-05-29,15:35:00,DRY,2.75,18.05,37.0,773.00,1017.2
2020-05-29,15:40:00,DRY,1.90,18.30,35.7,773.00,1004.6
2020-05-29,15:45:00,DRY,1.15,18.20,36.0,773.00,993.8
2020-05-29,15:50:00,DRY,2.00,18.60,32.7,773.00,976.3
2020-05-29,15:55:00,DRY,2.05,18.40,35.0,773.00,964.3
2020-05-29,16:00:00,DRY,1.63,18.17,32.7,773.00,954.3
2020-05-29,16:05:00,DRY,2.80,18.40,36.5,773.00,938.2
2020-05-29,16:10:00,DRY,2.40,18.27,36.7,773.00,930.2
2020-05-29,16:15:00,DRY,1.45,17.60,35.0,773.00,880.5
2020-05-29,16:20:00,DRY,1.93,18.20,34.7,773.00,665.6
2020-05-29,16:25:00,DRY,1.60,18.10,35.0,773.00,395.8
2020-05-29,16:30:00,DRY,1.27,17.67,35.3,773.00,421.8
2020-05-29,16:35:00,DRY,1.50,17.15,36.5,773.00,421.4
2020-05-29,16:40:00,DRY,2.17,17.40,35.3,773.00,481.5
2020-05-29,16:45:00,DRY,1.65,17.35,35.0,773.00,351.4
2020-05-29,16:50:00,DRY,1.80,17.03,34.7,773.00,338.3
2020-05-29,16:55:00,DRY,2.05,17.00,27.5,773.00,342.5
2020-05-29,17:00:00,DRY,1.77,17.43,26.3,773.00,388.8
2020-05-29,17:05:00,DRY,0.75,17.65,27.0,773.00,319.4
2020-05-29,17:10:00,DRY,0.83,17.43,27.0,773.00,291.2
2020-05-29,17:15:00,DRY,1.65,17.20,24.5,773.00,264.2
2020-05-29,17:20:00,DRY,1.07,16.63,26.3,773.00,269.9
2020-05-29,17:25:00,DRY,1.20,16.65,25.0,773.00,267.1
2020-05-29,17:30:00,DRY,1.17,16.60,23.7,773.00,245.9
2020-05-29,17:35:00,DRY,0.95,16.85,23.5,773.00,236.2
2020-05-29,17:40:00,DRY,1.27,16.70,25.3,773.00,239.6
2020-05-29,17:45:00,DRY,0.90,16.95,25.5,773.00,232.7
2020-05-29,17:50:00,DRY,2.30,17.00,17.7,773.00,283.0
2020-05-29,17:55:00,DRY,2.15,16.95,16.0,773.00,253.8
2020-05-29,18:00:00,DRY,2.23,16.97,15.0,773.00,306.2
2020-05-29,18:05:00,DRY,1.95,17.10,16.0,773.00,269.6
2020-05-29,18:10:00,DRY,1.03,17.27,16.7,773.00,415.7
2020-05-29,18:15:00,DRY,2.35,17.85,15.5,773.00,545.5
2020-05-29,18:20:00,DRY,2.47,17.97,15.3,773.00,488.4
2020-05-29,18:25:00,DRY,2.35,17.60,16.0,773.00,332.5
2020-05-29,18:30:00,DRY,2.67,17.23,15.7,773.00,233.1
2020-05-29,18:35:00,DRY,1.80,17.35,16.0,773.00,262.3
2020-05-29,18:40:00,DRY,1.85,17.50,14.5,773.00,319.4
2020-05-29,18:45:00,DRY,2.25,17.65,14.0,772.50,380.9
2020-05-29,18:50:00,DRY,2.70,17.83,14.7,773.00,377.9
2020-05-29,18:55:00,DRY,1.40,17.60,14.5,772.50,261.6
2020-05-29,19:00:00,DRY,2.03,17.20,15.3,773.00,142.9
2020-05-29,19:05:00,DRY,1.60,17.00,15.5,773.00,170.1
2020-05-29,19:10:00,DRY,2.40,16.63,20.7,773.00,202.4
2020-05-29,19:15:00,DRY,0.90,16.80,16.5,773.00,120.0
2020-05-29,19:20:00,DRY,1.83,16.60,15.7,773.00,106.7
2020-05-29,19:25:00,DRY,2.45,16.40,15.0,773.00,109.3
2020-05-29,19:30:00,DRY,1.73,16.30,14.7,773.00,105.3
2020-05-29,19:35:00,DRY,1.40,16.25,15.5,773.00,96.4
2020-05-29,19:40:00,DRY,2.00,16.37,14.7,773.00,90.8
2020-05-29,19:45:00,DRY,0.90,16.45,14.0,773.00,70.8
2020-05-29,19:50:00,DRY,1.13,16.33,14.7,773.00,50.6
2020-05-29,19:55:00,DRY,1.65,16.20,17.5,773.00,33.5
2020-05-29,20:00:00,DRY,1.47,15.60,23.7,773.00,21.8
2020-05-29,20:05:00,DRY,1.75,15.60,18.0,773.00,14.7
2020-05-29,20:10:00,DRY,1.83,15.57,15.3,773.00,8.1
2020-05-29,20:15:00,DRY,2.15,15.40,12.0,773.00,5.2
2020-05-29,20:20:00,DRY,2.77,15.20,13.0,773.00,2.0
2020-05-29,20:25:00,DRY,1.35,14.75,13.0,773.00,1.1
2020-05-29,20:30:00,DRY,1.83,14.33,10.3,773.00,2.0
2020-05-29,20:35:00,DRY,1.05,14.20,8.5,773.00,0.2
2020-05-29,20:40:00,DRY,2.47,14.20,7.3,773.00,1.2
2020-05-29,20:45:00,DRY,2.70,14.15,7.5,773.00,0.8
2020-05-29,20:50:00,DRY,2.87,14.10,6.0,773.00,2.2
2020-05-29,20:55:00,DRY,2.15,14.10,7.0,773.00,1.1
2020-05-29,21:00:00,DRY,2.17,14.20,7.7,773.00,1.6
2020-05-29,21:05:00,DRY,1.45,14.10,7.5,773.00,2.5
2020-05-29,21:10:00,DRY,3.33,13.97,7.7,773.00,1.4
2020-05-29,21:15:00,DRY,2.25,13.90,10.5,773.00,1.4
2020-05-29,21:20:00,DRY,2.07,13.80,11.7,773.00,1.2
2020-05-29,21:25:00,DRY,2.55,13.70,12.0,773.00,0.8
2020-05-29,21:30:00,DRY,2.67,13.70,13.0,773.00,1.0
2020-05-29,21:35:00,DRY,1.70,13.70,13.0,773.00,1.1
2020-05-29,21:40:00,DRY,3.70,13.63,13.0,773.00,1.4
2020-05-29,21:45:00,DRY,1.40,13.60,14.0,773.00,0.9
2020-05-29,21:50:00,DRY,2.73,13.60,13.0,773.00,1.3
2020-05-29,21:55:00,DRY,2.40,13.70,14.0,773.00,1.6
2020-05-29,22:00:00,DRY,2.87,13.63,14.3,773.00,1.8
2020-05-29,22:05:00,DRY,4.20,13.60,15.5,773.00,1.4
2020-05-29,22:10:00,DRY,2.30,13.60,17.0,773.00,1.5
2020-05-29,22:15:00,DRY,1.40,13.55,18.5,773.00,1.5
2020-05-29,22:20:00,DRY,1.67,13.57,18.7,773.00,0.9
2020-05-29,22:25:00,DRY,2.45,13.50,20.0,773.00,1.4
2020-05-29,22:30:00,DRY,2.00,13.53,18.7,773.00,1.8
2020-05-29,22:35:00,DRY,2.15,13.55,18.0,773.00,0.7
2020-05-29,22:40:00,DRY,1.23,13.40,17.3,773.00,1.0
2020-05-29,22:45:00,DRY,2.75,13.35,17.5,773.00,0.9
2020-05-29,22:50:00,DRY,1.47,13.37,16.7,773.00,1.5
2020-05-29,22:55:00,DRY,2.30,13.35,16.0,773.00,0.6
2020-05-29,23:00:00,DRY,3.10,13.47,17.7,773.00,0.6
2020-05-29,23:05:00,DRY,2.90,13.40,18.5,773.00,1.2
2020-05-29,23:10:00,DRY,2.73,13.63,20.0,773.00,1.2
2020-05-29,23:15:00,DRY,3.25,13.95,19.5,773.00,1.1
2020-05-29,23:20:00,DRY,2.90,14.03,20.0,773.00,0.9
2020-05-29,23:25:00,DRY,2.90,14.00,19.0,773.00,2.0
2020-05-29,23:30:00,DRY,3.13,13.97,19.7,773.00,1.6
2020-05-29,23:35:00,DRY,3.60,13.85,20.5,773.00,1.2
2020-05-29,23:40:00,DRY,3.20,13.80,21.3,773.00,1.3
2020-05-29,23:45:00,DRY,2.85,13.75,21.0,773.00,0.9
2020-05-29,23:50:00,DRY,2.33,13.53,19.0,773.00,1.4
2020-05-29,23:55:00,DRY,3.20,13.50,19.0,773.00,0.9
2020-05-30,00:00:00,DRY,2.67,13.57,20.7,773.00,0.9
2020-05-30,00:05:00,DRY,3.15,13.80,20.5,773.00,1.4
2020-05-30,00:10:00,DRY,3.80,13.90,21.0,773.00,0.9
2020-05-30,00:15:00,DRY,4.05,14.15,17.5,773.00,1.5
2020-05-30,00:20:00,DRY,4.17,14.20,16.7,772.33,1.3
2020-05-30,00:25:00,DRY,3.80,14.30,16.5,772.50,1.2
2020-05-30,00:30:00,DRY,2.77,14.20,17.0,772.00,0.8
2020-05-30,00:35:00,DRY,3.85,13.90,17.5,772.00,1.6
2020-05-30,00:40:00,DRY,3.67,14.10,17.0,772.00,1.0
2020-05-30,00:45:00,DRY,3.40,14.00,17.0,772.00,1.2
2020-05-30,00:50:00,DRY,4.00,13.97,17.0,772.00,1.4
2020-05-30,00:55:00,DRY,4.60,14.05,17.0,772.00,1.1
2020-05-30,01:00:00,DRY,4.17,14.00,17.0,772.00,1.3
2020-05-30,01:05:00,DRY,4.10,14.00,17.0,772.00,1.9
2020-05-30,01:10:00,DRY,3.67,14.23,16.3,772.00,0.9
2020-05-30,01:15:00,DRY,4.20,13.90,16.0,772.00,1.2
2020-05-30,01:20:00,DRY,3.30,14.07,16.0,772.00,1.4
2020-05-30,01:25:00,DRY,3.95,13.85,16.0,772.00,1.5
2020-05-30,01:30:00,DRY,3.13,13.97,16.0,772.00,0.8
2020-05-30,01:35:00,DRY,3.00,14.05,15.0,772.00,0.9
2020-05-30,01:40:00,DRY,4.03,13.80,15.0,772.00,0.8
2020-05-30,01:45:00,DRY,3.80,13.75,15.0,772.00,1.4
2020-05-30,01:50:00,DRY,3.40,13.90,15.0,772.00,1.0
2020-05-30,01:55:00,DRY,4.85,13.85,15.5,772.00,1.0
2020-05-30,02:00:00,DRY,3.87,13.73,14.0,771.67,0.5
2020-05-30,02:05:00,DRY,4.75,13.50,14.0,772.00,1.2
2020-05-30,02:10:00,DRY,5.30,13.43,14.0,771.00,1.2
2020-05-30,02:15:00,DRY,5.05,13.50,12.5,771.00,1.1
2020-05-30,02:20:00,DRY,4.00,13.50,12.0,771.00,1.2
2020-05-30,02:25:00,DRY,3.15,13.30,13.5,771.00,1.1
2020-05-30,02:30:00,DRY,3.20,13.30,13.3,771.00,1.5
2020-05-30,02:35:00,DRY,3.55,13.10,14.5,771.00,1.4
2020-05-30,02:40:00,DRY,4.37,13.20,13.3,771.00,1.2
2020-05-30,02:45:00,DRY,4.10,13.20,11.0,771.00,1.1
2020-05-30,02:50:00,DRY,4.17,13.23,11.0,771.00,1.1
2020-05-30,02:55:00,DRY,3.10,13.20,10.0,771.00,1.3
2020-05-30,03:00:00,DRY,3.53,13.10,11.0,771.00,2.1
2020-05-30,03:05:00,DRY,2.40,13.05,11.0,771.00,1.4
2020-05-30,03:10:00,DRY,3.07,13.00,11.3,771.00,1.5
2020-05-30,03:15:00,DRY,3.50,13.05,10.5,771.00,1.7
2020-05-30,03:20:00,DRY,4.33,13.03,10.7,771.00,1.3
2020-05-30,03:25:00,DRY,4.70,13.00,10.5,771.00,1.4
2020-05-30,03:30:00,DRY,4.03,12.93,10.7,771.00,1.5
2020-05-30,03:35:00,DRY,5.75,12.95,11.0,771.00,1.1
2020-05-30,03:40:00,DRY,5.97,12.87,11.3,771.00,1.1
2020-05-30,03:45:00,DRY,4.85,12.85,10.0,771.00,1.2
2020-05-30,03:50:00,DRY,3.97,12.87,9.3,771.00,1.0
2020-05-30,03:55:00,DRY,4.60,12.75,10.5,771.00,1.1
2020-05-30,04:00:00,DRY,5.60,12.63,9.3,771.00,1.1
2020-05-30,04:05:00,DRY,4.70,12.65,9.0,771.00,1.0
2020-05-30,04:10:00,DRY,5.50,12.63,9.0,771.00,1.2
2020-05-30,04:15:00,DRY,5.55,12.60,9.5,771.00,1.2
2020-05-30,04:20:00,DRY,5.20,12.63,9.7,771.00,1.2
2020-05-30,04:25:00,DRY,5.25,12.65,10.0,771.00,1.0
2020-05-30,04:30:00,DRY,4.97,12.60,10.3,771.00,1.2
2020-05-30,04:35:00,DRY,4.70,12.65,9.5,771.00,1.1
2020-05-30,04:40:00,DRY,4.60,12.60,8.7,771.00,0.7
2020-05-30,04:45:00,DRY,4.75,12.55,8.0,770.50,1.6
2020-05-30,04:50:00,DRY,4.23,12.50,9.0,771.00,1.2
2020-05-30,04:55:00,DRY,4.80,12.45,9.0,771.00,1.1
2020-05-30,05:00:00,DRY,4.40,12.43,9.0,771.00,1.2
2020-05-30,05:05:00,DRY,5.35,12.40,9.0,770.00,1.5
2020-05-30,05:10:00,DRY,4.97,12.40,9.0,770.33,1.1
2020-05-30,05:15:00,DRY,5.05,12.35,9.0,770.00,1.1
2020-05-30,05:20:00,DRY,5.10,12.30,8.7,770.67,1.2
2020-05-30,05:25:00,DRY,3.85,12.30,9.0,770.00,1.2
2020-05-30,05:30:00,DRY,4.43,12.17,9.7,770.33,0.9
2020-05-30,05:35:00,DRY,4.10,12.15,9.0,771.00,1.2
2020-05-30,05:40:00,DRY,3.37,12.03,10.0,771.00,0.9
2020-05-30,05:45:00,DRY,4.35,12.05,10.0,770.50,1.1
2020-05-30,05:50:00,DRY,3.53,12.03,9.7,770.00,0.8
2020-05-30,05:55:00,DRY,4.35,12.05,9.5,770.00,1.3
2020-05-30,06:00:00,DRY,4.03,12.03,10.0,770.33,1.7
2020-05-30,06:05:00,DRY,3.60,11.90,10.0,770.00,2.2
2020-05-30,06:10:00,DRY,3.97,11.87,10.3,770.00,4.2
2020-05-30,06:15:00,DRY,4.10,11.85,10.5,770.00,5.7
2020-05-30,06:20:00,DRY,5.00,11.60,13.0,770.00,9.4
2020-05-30,06:25:00,DRY,5.15,11.60,13.0,770.00,14.6
2020-05-30,06:30:00,DRY,5.37,11.57,12.7,770.00,23.0
2020-05-30,06:35:00,DRY,5.25,11.50,12.5,770.00,34.8
2020-05-30,06:40:00,DRY,5.63,11.73,10.0,770.00,47.1
2020-05-30,06:45:00,DRY,4.80,11.90,9.5,770.50,64.8
2020-05-30,06:50:00,DRY,5.33,11.90,9.3,770.00,85.9
2020-05-30,06:55:00,DRY,6.15,12.00,9.0,770.00,109.0
2020-05-30,07:00:00,DRY,4.40,12.00,8.7,770.33,134.0
2020-05-30,07:05:00,DRY,4.85,12.05,8.0,770.50,136.6
2020-05-30,07:10:00,DRY,5.83,12.00,8.0,770.00,148.0
2020-05-30,07:15:00,DRY,5.05,12.00,8.5,770.00,144.1
2020-05-30,07:20:00,DRY,5.57,12.00,8.3,770.33,146.3
2020-05-30,07:25:00,DRY,6.10,12.00,8.0,770.00,150.9
2020-05-30,07:30:00,DRY,5.40,11.90,8.0,770.00,154.2
2020-05-30,07:35:00,DRY,6.75,11.90,8.0,770.00,162.8
2020-05-30,07:40:00,DRY,6.00,11.90,8.5,770.00,162.8
2020-05-30,07:45:00,DRY,6.10,11.90,9.0,770.50,175.9
2020-05-30,07:50:00,DRY,3.37,12.07,8.3,770.67,203.0
2020-05-30,07:55:00,DRY,3.80,12.50,7.0,770.50,265.3
2020-05-30,08:00:00,DRY,3.00,12.67,7.7,770.67,305.4
2020-05-30,08:05:00,DRY,4.95,12.85,7.0,771.00,318.8
2020-05-30,08:10:00,DRY,3.73,13.00,6.3,770.67,317.7
2020-05-30,08:15:00,DRY,4.85,12.95,7.0,770.00,310.9
2020-05-30,08:20:00,DRY,5.80,12.57,8.0,770.00,315.7
2020-05-30,08:25:00,DRY,6.10,12.40,8.5,770.00,324.7
2020-05-30,08:30:00,DRY,5.73,12.37,9.0,770.67,309.6
2020-05-30,08:35:00,DRY,5.00,12.35,7.5,771.00,313.2
2020-05-30,08:40:00,DRY,4.67,12.67,7.3,771.00,327.1
2020-05-30,08:45:00,DRY,5.10,13.05,7.0,771.00,369.7
2020-05-30,08:50:00,DRY,5.10,13.27,5.7,771.00,500.8
2020-05-30,08:55:00,DRY,3.40,13.60,6.0,771.00,786.1
2020-05-30,09:00:00,DRY,3.57,13.83,6.7,771.00,761.5
2020-05-30,09:05:00,DRY,3.80,14.00,7.5,771.00,743.5
2020-05-30,09:10:00,DRY,3.30,14.03,6.7,771.00,688.1
2020-05-30,09:15:00,DRY,1.25,14.00,7.5,771.00,691.0
2020-05-30,09:20:00,DRY,2.97,14.00,8.0,771.00,667.3
2020-05-30,09:25:00,DRY,2.00,13.80,10.0,771.00,675.1
2020-05-30,09:30:00,DRY,3.73,13.97,8.3,771.00,697.8
2020-05-30,09:35:00,DRY,4.25,13.85,7.5,770.50,759.2
2020-05-30,09:40:00,DRY,4.07,14.00,8.3,771.00,708.1
2020-05-30,09:45:00,DRY,4.40,13.85,7.5,771.00,590.3
2020-05-30,09:50:00,DRY,4.23,13.97,9.3,771.00,776.4
2020-05-30,09:55:00,DRY,4.55,14.20,8.0,771.00,1014.8
2020-05-30,10:00:00,DRY,4.23,14.40,8.3,771.00,968.5
2020-05-30,10:05:00,DRY,4.80,14.55,7.5,771.00,856.8
2020-05-30,10:10:00,DRY,2.93,14.47,7.0,771.00,973.7
2020-05-30,10:15:00,DRY,2.75,14.65,7.0,771.00,995.9
2020-05-30,10:20:00,DRY,2.50,14.97,7.7,771.00,1001.8
2020-05-30,10:25:00,DRY,1.90,15.35,8.0,771.00,1010.9
2020-05-30,10:30:00,DRY,2.73,15.97,8.3,771.00,1023.8
2020-05-30,10:35:00,DRY,3.30,15.70,9.0,771.00,1035.8
2020-05-30,10:40:00,DRY,2.33,15.87,8.3,771.00,1048.6
2020-05-30,10:45:00,DRY,1.10,16.15,9.5,771.00,1058.5
2020-05-30,10:50:00,DRY,1.53,16.53,8.7,771.00,1072.1
2020-05-30,10:55:00,DRY,1.75,16.80,8.0,771.00,1082.0
2020-05-30,11:00:00,DRY,2.60,16.97,7.0,771.00,1092.1
2020-05-30,11:05:00,DRY,2.40,17.10,8.0,771.00,1105.2
2020-05-30,11:10:00,DRY,3.70,17.00,8.7,771.00,1115.2
2020-05-30,11:15:00,DRY,4.25,17.05,7.5,771.00,1125.2
2020-05-30,11:20:00,DRY,3.93,17.37,5.0,771.00,1136.8
2020-05-30,11:25:00,DRY,3.30,16.95,6.0,771.00,1145.7
2020-05-30,11:30:00,DRY,2.60,17.43,5.3,771.00,1155.8
2020-05-30,11:35:00,DRY,2.00,17.45,8.0,771.00,1164.4
2020-05-30,11:40:00,DRY,2.97,16.87,7.3,771.00,1171.2
2020-05-30,11:45:00,DRY,2.85,17.05,8.0,771.00,1179.9
2020-05-30,11:50:00,DRY,2.43,16.80,10.3,771.00,1185.3
2020-05-30,11:55:00,DRY,2.80,16.50,11.5,771.00,1191.6
2020-05-30,12:00:00,DRY,2.83,16.50,11.7,771.00,1199.0
2020-05-30,12:05:00,DRY,2.20,16.20,12.5,771.00,1201.2
2020-05-30,12:10:00,DRY,2.27,17.57,8.0,771.00,1207.7
2020-05-30,12:15:00,DRY,3.55,17.75,10.0,771.00,1211.6
2020-05-30,12:20:00,DRY,2.13,17.87,12.7,771.00,1213.3
2020-05-30,12:25:00,DRY,1.95,17.40,16.5,771.00,1218.8
2020-05-30,12:30:00,DRY,2.27,17.73,16.0,771.00,1219.6
2020-05-30,12:35:00,DRY,2.55,17.20,15.0,771.00,1223.5
2020-05-30,12:40:00,DRY,1.70,17.27,13.7,771.00,1226.1
2020-05-30,12:45:00,DRY,3.35,17.90,8.5,771.00,1229.5
2020-05-30,12:50:00,DRY,3.70,17.43,10.7,771.00,1227.8
2020-05-30,12:55:00,DRY,3.40,17.70,6.0,771.00,1230.3
2020-05-30,13:00:00,DRY,2.17,17.47,7.0,770.33,1229.6
2020-05-30,13:05:00,DRY,2.55,17.80,6.0,771.00,1233.2
2020-05-30,13:10:00,DRY,4.00,17.83,8.3,770.67,1230.7
2020-05-30,13:15:00,DRY,4.45,17.75,10.0,770.50,1231.8
2020-05-30,13:20:00,DRY,3.13,18.00,11.0,770.67,1231.5
2020-05-30,13:25:00,DRY,1.60,17.85,12.0,770.00,1230.3
2020-05-30,13:30:00,DRY,3.40,18.20,12.0,771.00,1230.2
2020-05-30,13:35:00,DRY,5.90,17.60,12.0,770.00,1233.0
2020-05-30,13:40:00,DRY,4.27,17.63,10.7,770.00,1227.7
2020-05-30,13:45:00,DRY,2.70,17.50,11.0,770.00,1222.8
2020-05-30,13:50:00,DRY,4.30,17.50,9.3,770.00,1220.8
2020-05-30,13:55:00,DRY,3.90,17.20,11.5,770.50,1215.6
2020-05-30,14:00:00,DRY,5.87,17.40,11.7,770.00,1213.1
2020-05-30,14:05:00,DRY,3.05,17.90,11.0,770.00,1206.0
2020-05-30,14:10:00,DRY,3.83,17.63,10.7,770.00,1205.2
2020-05-30,14:15:00,DRY,4.35,17.45,8.0,770.00,1196.4
2020-05-30,14:20:00,DRY,3.00,17.77,10.0,770.00,1194.6
2020-05-30,14:25:00,DRY,6.00,18.05,9.0,770.00,1186.8
2020-05-30,14:30:00,DRY,3.40,17.57,11.7,770.00,1179.6
2020-05-30,14:35:00,DRY,4.15,17.55,10.0,770.00,1173.7
2020-05-30,14:40:00,DRY,5.10,17.07,9.0,770.00,1163.4
2020-05-30,14:45:00,DRY,3.65,17.10,9.0,770.00,1155.4
2020-05-30,14:50:00,DRY,5.73,17.17,10.7,770.00,1147.1
2020-05-30,14:55:00,DRY,3.15,17.30,10.5,770.00,1137.8
2020-05-30,15:00:00,DRY,3.30,17.03,7.7,770.00,1128.2
2020-05-30,15:05:00,DRY,3.75,17.25,11.0,770.00,1116.5
2020-05-30,15:10:00,DRY,3.40,17.53,10.0,770.00,1106.0
2020-05-30,15:15:00,DRY,4.55,17.35,8.0,770.00,1095.1
2020-05-30,15:20:00,DRY,2.40,17.00,9.7,770.00,1081.9
2020-05-30,15:25:00,DRY,2.75,17.40,8.5,770.00,1071.2
2020-05-30,15:30:00,DRY,4.73,16.87,10.3,770.00,1058.1
2020-05-30,15:35:00,DRY,3.75,16.70,8.5,770.00,1044.4
2020-05-30,15:40:00,DRY,4.97,17.07,10.3,770.00,1030.4
2020-05-30,15:45:00,DRY,5.55,16.50,10.0,770.00,1016.6
2020-05-30,15:50:00,DRY,3.43,16.63,10.7,770.00,1000.3
2020-05-30,15:55:00,DRY,3.60,16.15,18.5,770.00,986.5
2020-05-30,16:00:00,DRY,3.70,16.23,11.0,770.00,970.5
2020-05-30,16:05:00,DRY,3.90,16.20,9.5,770.00,955.1
2020-05-30,16:10:00,DRY,4.00,16.30,10.7,770.00,938.8
2020-05-30,16:15:00,DRY,4.80,16.30,13.5,770.00,922.4
2020-05-30,16:20:00,DRY,2.13,16.23,12.3,770.00,905.6
2020-05-30,16:25:00,DRY,4.70,16.65,12.0,770.00,888.8
2020-05-30,16:30:00,DRY,4.20,16.63,7.7,770.00,873.3
2020-05-30,16:35:00,DRY,4.15,16.50,9.0,770.00,854.8
2020-05-30,16:40:00,DRY,3.83,16.30,8.3,770.00,836.3
2020-05-30,16:45:00,DRY,2.90,16.60,9.5,770.00,816.6
2020-05-30,16:50:00,DRY,4.00,16.70,8.3,770.00,799.9
2020-05-30,16:55:00,DRY,1.80,16.70,10.0,770.00,779.8
2020-05-30,17:00:00,DRY,3.40,16.10,10.0,770.00,760.0
2020-05-30,17:05:00,DRY,3.55,16.30,11.5,770.00,740.5
2020-05-30,17:10:00,DRY,4.07,16.60,10.3,770.00,722.5
2020-05-30,17:15:00,DRY,3.80,16.40,7.5,770.00,702.2
2020-05-30,17:20:00,DRY,2.93,16.43,9.7,770.00,682.4
2020-05-30,17:25:00,DRY,2.75,16.45,11.5,770.00,660.7
2020-05-30,17:30:00,DRY,2.70,16.43,12.0,770.00,639.8
2020-05-30,17:35:00,DRY,4.10,16.05,9.5,770.00,618.9
2020-05-30,17:40:00,DRY,2.97,15.70,8.7,770.00,597.3
2020-05-30,17:45:00,DRY,2.95,16.00,10.5,770.00,575.4
2020-05-30,17:50:00,DRY,1.93,15.80,10.0,770.00,554.4
2020-05-30,17:55:00,DRY,3.10,15.60,9.5,770.00,531.5
2020-05-30,18:00:00,DRY,2.23,15.50,15.0,770.00,511.2
2020-05-30,18:05:00,DRY,5.90,14.85,9.5,770.00,488.4
2020-05-30,18:10:00,DRY,2.90,15.43,11.0,770.00,464.4
2020-05-30,18:15:00,DRY,3.30,15.70,11.5,770.00,442.7
2020-05-30,18:20:00,DRY,3.13,15.00,11.3,770.00,420.3
2020-05-30,18:25:00,DRY,3.15,15.30,14.5,770.00,398.2
2020-05-30,18:30:00,DRY,3.07,14.60,14.3,770.00,374.3
2020-05-30,18:35:00,DRY,3.00,14.55,13.0,770.00,350.6
2020-05-30,18:40:00,DRY,2.07,14.47,13.7,770.00,328.4
2020-05-30,18:45:00,DRY,3.05,14.20,15.0,770.00,304.8
2020-05-30,18:50:00,DRY,2.53,14.30,8.3,770.00,283.2
2020-05-30,18:55:00,DRY,3.00,14.50,7.5,770.00,261.3
2020-05-30,19:00:00,DRY,1.97,14.23,9.3,770.00,239.3